Regional Weather Roundup
Issued by NWS

Home | Current Version | Previous Version | Graphics & Text | Print | Product List | Glossary On
Versions: 1 2 3 4 5 6 7 8 9 10 11 12 13 14 15 16 17 18 19 20 21 22 23 24 25 26 27 28 29 30 31 32 33 34 35 36 37 38 39 40 41 42 43 44 45 46 47 48 49 50
000
ASUS44 KMEG 132110
RWRTN
TENNESSEE HOURLY STATE WEATHER ROUNDUP
NATIONAL WEATHER SERVICE MEMPHIS TN
300 PM CST WED DEC 13 2017

TNZ002-004-019-021-049-052-054-088>092-132200-
WEST TENNESSEE

CITY           SKY/WX    TMP DP  RH WIND       PRES   REMARKS
MEMPHIS INTL   MOSUNNY   57  25  29 SW15G26   29.79F
NWS MEMPHIS      N/A     57 N/A N/A MISG        N/A
JACKSON        SUNNY     57  23  26 SW24G31   29.76F
DYERSBURG      MOSUNNY   55  26  32 SW17G26   29.76R
SOMERVILLE     SUNNY     57  25  28 SW21G28   29.76F
COVINGTON      SUNNY     55  25  30 SW22G29   29.76F
UNION CITY     SUNNY     54  25  32 SW14G29   29.72R
BOLIVAR        SUNNY     57  23  26 SW16G23   29.77F
PARIS          SUNNY     54  23  30 SW20G33   29.70S
HUNTINGDON     SUNNY     54  23  30 SW10G20   29.72R
LEXINGTON      SUNNY     55  19  24 SW23G33   29.74F
SELMER         SUNNY     54  19  26 SW12G28   29.77F
SAVANNAH       SUNNY     55  21  26 SW16G24   29.78F
$$

TNZ008-025-027-028-033-062-065-066-132200-
NORTH MIDDLE TENNESSEE

CITY           SKY/WX    TMP DP  RH WIND       PRES   REMARKS
NASHVILLE      MOSUNNY   51  16  24 SW16G26   29.71F
PORTLAND       SUNNY     48  18  29 SW20G26   29.66F
CLARKSVILLE    MOSUNNY   51  16  24 SW17G29   29.69R
SMYRNA         SUNNY     50  17  27 S15G24    29.72F
COOKEVILLE     MOSUNNY   46  14  27 SW20G25   29.72F
GALLATIN       SUNNY     50  18  27 SW8G25    29.71F
CROSSVILLE     MOSUNNY   40  10  29 S10G21    29.72F WCI  33
$$

TNZ061-075-076-078-094-096-097-132200-
SOUTH MIDDLE TENNESSEE

CITY           SKY/WX    TMP DP  RH WIND       PRES   REMARKS
FAYETTEVILLE   SUNNY     48  16  27 SW17G29   29.81F
TULLAHOMA      SUNNY     46  16  29 S10G31    29.78S
WINCHESTER     SUNNY     46  14  27 S12       29.81F
MCMINNVILLE    MOSUNNY   46  14  27 SW17G25   29.75F
COLUMBIA       SUNNY     52  18  25 S18       29.73F
SHELBYVILLE    SUNNY     48  18  29 S20G32    29.77F
$$

TNZ017-018-042-046-047-132200-
NORTHEAST TENNESSEE

CITY           SKY/WX    TMP DP  RH WIND       PRES   REMARKS
TRI CITIES     MOSUNNY   41  11  29 SW10      29.72F
ELIZABETHTON   MOSUNNY   41   7  24 CALM      29.73F
$$

TNZ012-013-036-069-073-074-132200-
CENTRAL EAST TENNESSEE

CITY           SKY/WX    TMP DP  RH WIND       PRES   REMARKS
KNOXVILLE      MOSUNNY   47   7  19 SW22G29   29.75F
OAK RIDGE      SUNNY     43   9  24 SW10G22   29.79F
DOWNTOWN KNOXV MOSUNNY   46   3  17 W15G24    29.76F
GATLINBURG     SUNNY     50   9  18 W8        29.72F
MORRISTOWN     SUNNY     45   1  16 W13G21    29.72F
JACKSBORO      MOSUNNY   41   9  26 S8        29.77F
$$

TNZ083-085-099-132200-
SOUTHEAST TENNESSEE

CITY           SKY/WX    TMP DP  RH WIND       PRES   REMARKS
CHATTANOOGA    MOSUNNY   47  13  25 S15       29.84F
DAYTON         CLEAR     46  16  29 S16G22    29.81S
$$

SKY/WX REPORTED AS FAIR MEANS FEW OR NO CLOUDS BELOW
12 THOUSAND FEET.





USA.gov is the U.S. government's official web portal to all federal, state and local government web resources and services.